Weather History for Fallon NAS, NV

Change the Weather History Date:

Sunday, August 4, 2013

  Actual Average Record
Temperature  
Mean Temperature 75 °F -  
Max Temperature 96 °F 92 °F 103 °F (1961)
Min Temperature 55 °F 54 °F 42 °F (1976)
Cooling Degree Days 10    
Growing Degree Days 25 (Base 50)    
Moisture  
Dew Point 29 °F    
Average Humidity 20    
Maximum Humidity 37    
Minimum Humidity 7    
Precipitation  
Precipitation 0.00 in - - ()
Sea Level Pressure  
Sea Level Pressure 29.94 in    
Wind  
Wind Speed 5 mph (SW)    
Max Wind Speed 8 mph    
Max Gust Speed -    
Visibility 10 miles    
Events      
Averages and records for this station are not official NWS values.
T = Trace of Precipitation, MM = Missing Value Source: NWS Daily Summary

Daily Weather History Graph

Daily Weather History Graph

Search for Another Location

Airport:

Trip Planner

Search our weather history database for the weather conditions in past years. The results will help you decide how hot, cold, wet, or windy it might be!

Date:

Astronomy

Aug. 04, 2013 Rise Set
Actual Time 5:57 AM PDT 8:03 PM PDT
Civil Twilight 5:27 AM PDT 8:33 PM PDT
Nautical Twilight 4:51 AM PDT 9:09 PM PDT
Astronomical Twilight 4:12 AM PDT 9:48 PM PDT
Moon 4:02 AM PDT (8/4) 6:29 PM PDT (8/4)
Length of Visible Light 15h 05m
Length of Day
14h 05m
Waning Crescent, 4% of the Moon is Illuminated
Aug 4
Waning Crescent
Aug 6
New
Aug 14
First Quarter
Aug 20
Full
Aug 28
Last Quarter

Hourly Weather History & Observations

Time (PDT) Temp. Dew Point Humidity Pressure Visibility Wind Dir Wind Speed Gust Speed Precip Events Conditions
12:56 AM 63.0 °F 30.0 °F 29% 29.93 in 10.0 mi South 5.8 mph - N/A   Clear
1:56 AM 63.0 °F 32.0 °F 31% 29.93 in 10.0 mi Calm Calm - N/A   Clear
2:56 AM 60.1 °F 33.1 °F 36% 29.93 in 10.0 mi South 5.8 mph - N/A   Clear
3:56 AM 59.0 °F 32.0 °F 36% 29.94 in 10.0 mi SSE 5.8 mph - N/A   Clear
4:56 AM 57.0 °F 30.9 °F 37% 29.95 in 10.0 mi South 6.9 mph - N/A   Clear
5:56 AM 55.0 °F 28.0 °F 35% 29.96 in 10.0 mi SE 4.6 mph - N/A   Clear
6:56 AM 61.0 °F 30.0 °F 31% 29.98 in 10.0 mi SSE 6.9 mph - N/A   Clear
7:56 AM 70.0 °F 34.0 °F 27% 29.99 in 10.0 mi South 4.6 mph - N/A   Clear
8:56 AM 75.0 °F 37.0 °F 25% 29.99 in 10.0 mi West 4.6 mph - N/A   Clear
9:56 AM 80.1 °F 34.0 °F 19% 29.99 in 10.0 mi Calm Calm - N/A   Clear
10:56 AM 84.9 °F 28.0 °F 13% 29.98 in 10.0 mi ENE 3.5 mph - N/A   Clear
11:01 AM 84.2 °F 28.4 °F 13% 30.08 in 10.0 mi Variable 3.5 mph - N/A   Partly Cloudy
11:56 AM 84.9 °F 28.0 °F 13% 29.97 in 10.0 mi Calm Calm - N/A   Partly Cloudy
12:56 PM 88.0 °F 26.1 °F 11% 29.95 in 10.0 mi ENE 3.5 mph - N/A   Partly Cloudy
1:56 PM 91.9 °F 24.1 °F 9% 29.94 in 10.0 mi Variable 3.5 mph - N/A   Scattered Clouds
2:56 PM 91.9 °F 24.1 °F 9% 29.91 in 10.0 mi WNW 5.8 mph - N/A   Scattered Clouds
3:56 PM 95.0 °F 23.0 °F 8% 29.89 in 10.0 mi WNW 8.1 mph - N/A   Scattered Clouds
4:56 PM 93.0 °F 21.0 °F 7% 29.88 in 10.0 mi West 5.8 mph - N/A   Mostly Cloudy
5:56 PM 93.9 °F 24.1 °F 8% 29.86 in 10.0 mi WNW 3.5 mph - N/A   Mostly Cloudy
6:56 PM 93.0 °F 23.0 °F 8% 29.86 in 10.0 mi NW 8.1 mph - N/A   Clear
7:56 PM 88.0 °F 26.1 °F 11% 29.86 in 10.0 mi NW 5.8 mph - N/A   Clear
8:56 PM 80.1 °F 30.9 °F 17% 29.87 in 10.0 mi North 3.5 mph - N/A   Clear
9:56 PM 81.0 °F 30.9 °F 16% 29.89 in 10.0 mi WNW 8.1 mph - N/A   Clear
10:56 PM 71.1 °F 32.0 °F 24% 29.92 in 10.0 mi South 3.5 mph - N/A   Clear
11:56 PM 66.9 °F 35.1 °F 31% 29.94 in 10.0 mi SSW 3.5 mph - N/A   Clear